Weather History for Tri-Cities, TN

Change the Weather History Date:

Friday, November 4, 2011

  Actual Average Record
Temperature  
Mean Temperature 48 °F 50 °F  
Max Temperature 59 °F 63 °F 81 °F (2003)
Min Temperature 37 °F 38 °F 21 °F (1966)
Degree Days  
Heating Degree Days 17 15  
Month to date heating degree days 70 57  
Since 1 July heating degree days 384 392  
Cooling Degree Days 0 0  
Month to date cooling degree days 0 0  
Year to date cooling degree days 1331 980  
Moisture  
Dew Point 45 °F    
Average Humidity 79    
Maximum Humidity 100    
Minimum Humidity 57    
Precipitation  
Precipitation 1.10 in 0.09 in 1.68 in (1985)
Month to date precipitation 1.63 0.36  
Year to date precipitation 40.61 34.90  
Snow  
Snow 0.00 in 0.00 in - ()
Month to date snowfall 0.0 0.0  
Since 1 July snowfall 0.0 0.1  
Since 1 September snowfall 0.0 0.1  
Snow Depth 0.00 in    
Sea Level Pressure  
Sea Level Pressure 29.95 in    
Wind  
Wind Speed 6 mph (West)    
Max Wind Speed 16 mph    
Max Gust Speed 22 mph    
Visibility 7 miles    
Events Rain    
T = Trace of Precipitation, MM = Missing Value Source: NWS Daily Summary

Daily Weather History Graph

Daily Weather History Graph

Search for Another Location

Airport:

Trip Planner

Search our weather history database for the weather conditions in past years. The results will help you decide how hot, cold, wet, or windy it might be!

Date:

Astronomy

Nov. 04, 2011 Rise Set
Actual Time 7:55 AM EDT 6:30 PM EDT
Civil Twilight 7:28 AM EDT 6:57 PM EDT
Nautical Twilight 6:58 AM EDT 7:27 PM EDT
Astronomical Twilight 6:27 AM EDT 7:57 PM EDT
Moon 3:13 PM EDT (11/4) 2:15 AM EDT (11/4)
Length of Visible Light 11h 28m
Length of Day
10h 34m
Waxing Gibbous, 69% of the Moon is Illuminated
Nov 4
Waxing Gibbous
Nov 10
Full
Nov 18
Last Quarter
Nov 25
New
Dec 2
First Quarter

Hourly Weather History & Observations

Time (EDT) Temp. Windchill Dew Point Humidity Pressure Visibility Wind Dir Wind Speed Gust Speed Precip Events Conditions
12:53 AM 51.1 °F - 46.9 °F 86% 29.78 in 10.0 mi NE 3.5 mph - N/A   Overcast
1:53 AM 50.0 °F - 48.0 °F 93% 29.78 in 9.0 mi WSW 3.5 mph - 0.01 in Rain Light Rain
2:46 AM 50.0 °F - 48.2 °F 94% 29.82 in 2.5 mi Calm Calm - 0.03 in Rain Heavy Rain
2:53 AM 50.0 °F - 48.0 °F 93% 29.77 in 2.5 mi Calm Calm - 0.05 in Rain Rain
3:02 AM 50.0 °F - 48.2 °F 94% 29.81 in 2.5 mi Calm Calm - 0.04 in Rain Rain
3:13 AM 50.0 °F - 48.2 °F 94% 29.81 in 3.0 mi NW 3.5 mph - 0.07 in Rain Rain
3:53 AM 50.0 °F - 48.0 °F 93% 29.77 in 3.0 mi West 4.6 mph - 0.14 in Rain Light Rain
4:53 AM 48.9 °F - 48.0 °F 97% 29.79 in 3.0 mi SW 6.9 mph - 0.10 in Rain Heavy Rain
5:00 AM 46.4 °F 40.4 °F 46.4 °F 100% 29.83 in 2.0 mi SSW 13.8 mph - 0.06 in Rain Heavy Rain
5:53 AM 45.0 °F 40.1 °F 44.1 °F 97% 29.83 in 2.5 mi WSW 9.2 mph - 0.47 in Rain Heavy Rain
6:42 AM 46.4 °F 42.9 °F 44.6 °F 93% 29.88 in 6.0 mi West 6.9 mph - 0.21 in Rain Rain
6:53 AM 46.9 °F - 46.0 °F 97% 29.86 in 6.0 mi West 8.1 mph - 0.23 in Rain Rain
7:53 AM 46.9 °F - 45.0 °F 93% 29.89 in 3.0 mi West 8.1 mph - 0.05 in Rain Light Rain
8:53 AM 46.0 °F 42.5 °F 45.0 °F 96% 29.92 in 3.0 mi SW 6.9 mph - 0.05 in Rain Light Rain
9:01 AM 46.4 °F 42.4 °F 44.6 °F 93% 29.95 in 6.0 mi WSW 8.1 mph - 0.00 in Rain Light Rain
9:09 AM 46.4 °F 44.3 °F 44.6 °F 93% 29.96 in 8.0 mi WSW 4.6 mph - 0.00 in   Overcast
9:53 AM 46.9 °F - 45.0 °F 93% 29.97 in 8.0 mi WSW 4.6 mph - 0.00 in   Overcast
10:43 AM 48.2 °F - 46.4 °F 93% 29.99 in 10.0 mi WSW 5.8 mph - 0.00 in   Overcast
10:53 AM 48.0 °F - 46.0 °F 93% 29.97 in 10.0 mi WSW 5.8 mph - 0.00 in   Overcast
11:44 AM 50.0 °F - 46.4 °F 87% 30.01 in 10.0 mi West 3.5 mph - 0.00 in   Overcast
11:53 AM 50.0 °F - 46.0 °F 86% 29.98 in 10.0 mi WSW 4.6 mph - 0.00 in   Mostly Cloudy
12:13 PM 50.0 °F - 48.2 °F 94% 30.01 in 10.0 mi SSW 8.1 mph - N/A   Mostly Cloudy
12:53 PM 52.0 °F - 46.9 °F 83% 29.98 in 10.0 mi SW 5.8 mph - N/A   Overcast
1:40 PM 55.4 °F - 48.2 °F 77% 30.01 in 10.0 mi Variable 5.8 mph - N/A   Mostly Cloudy
1:53 PM 55.9 °F - 48.0 °F 75% 29.97 in 10.0 mi East 6.9 mph - N/A   Scattered Clouds
2:53 PM 57.9 °F - 43.0 °F 58% 29.97 in 10.0 mi North 5.8 mph - N/A   Scattered Clouds
3:53 PM 57.0 °F - 43.0 °F 59% 29.99 in 10.0 mi NW 10.4 mph - N/A   Scattered Clouds
4:53 PM 55.9 °F - 42.1 °F 60% 30.01 in 10.0 mi NNW 13.8 mph - N/A   Partly Cloudy
5:53 PM 53.1 °F - 41.0 °F 64% 30.05 in 10.0 mi NNW 9.2 mph - N/A   Partly Cloudy
6:53 PM 50.0 °F - 41.0 °F 71% 30.09 in 10.0 mi North 8.1 mph - N/A   Partly Cloudy
7:53 PM 48.9 °F - 39.9 °F 71% 30.11 in 10.0 mi NNW 5.8 mph - N/A   Clear
8:53 PM 46.0 °F 43.1 °F 39.9 °F 79% 30.13 in 10.0 mi North 5.8 mph - N/A   Clear
9:53 PM 43.0 °F - 39.0 °F 86% 30.15 in 10.0 mi Calm Calm - N/A   Clear
10:53 PM 43.0 °F - 39.0 °F 86% 30.16 in 10.0 mi Calm Calm - N/A   Clear
11:53 PM 37.0 °F - 36.0 °F 96% 30.17 in 8.0 mi Calm Calm - N/A   Clear